Time,TemperatureF,DewpointF,PressureIn,WindDirection,WindDirectionDegrees,WindSpeedMPH,WindSpeedGustMPH,Humidity,HourlyPrecipIn,Conditions,Clouds,dailyrainin,SoftwareType,DateUTC
2013-02-11 00:10:00,48.7,42.0,29.62,WSW,256,15.0,-999.0,79,-99.99,,,0.26,weatherlink.com 1.10,2013-02-11 06:10:00,
2013-02-11 00:25:00,47.4,40.0,29.62,SW,224,11.0,-999.0,75,-99.99,,,0.26,weatherlink.com 1.10,2013-02-11 06:25:00,
2013-02-11 00:40:00,46.9,39.0,29.62,West,259,7.0,-999.0,74,-99.99,,,0.26,weatherlink.com 1.10,2013-02-11 06:40:00,
2013-02-11 00:55:00,45.8,39.0,29.62,WSW,250,14.0,-999.0,76,-99.99,,,0.26,weatherlink.com 1.10,2013-02-11 06:55:00,
2013-02-11 01:11:00,44.3,38.0,29.63,West,279,7.0,-999.0,78,-99.99,,,0.26,weatherlink.com 1.10,2013-02-11 07:11:00,
2013-02-11 01:26:00,43.8,37.0,29.64,West,269,10.0,-999.0,77,-99.99,,,0.00,weatherlink.com 1.10,2013-02-11 07:26:00,
2013-02-11 01:41:00,43.2,36.0,29.66,WSW,238,7.0,-999.0,77,-99.99,,,0.00,weatherlink.com 1.10,2013-02-11 07:41:00,
2013-02-11 01:56:00,42.3,34.0,29.66,West,259,10.0,-999.0,72,-99.99,,,0.00,weatherlink.com 1.10,2013-02-11 07:56:00,
2013-02-11 02:12:00,40.9,33.0,29.67,WSW,249,15.0,-999.0,74,-99.99,,,0.00,weatherlink.com 1.10,2013-02-11 08:12:00,
2013-02-11 02:27:00,40.0,33.0,29.68,West,262,11.0,-999.0,75,-99.99,,,0.00,weatherlink.com 1.10,2013-02-11 08:27:00,
2013-02-11 02:42:00,39.8,33.0,29.67,SW,234,18.0,-999.0,76,-99.99,,,0.00,weatherlink.com 1.10,2013-02-11 08:42:00,
2013-02-11 02:57:00,40.4,33.0,29.67,WSW,258,4.0,-999.0,75,-99.99,,,0.00,weatherlink.com 1.10,2013-02-11 08:57:00,
2013-02-11 03:11:00,40.2,33.0,29.68,SW,230,9.0,-999.0,76,-99.99,,,0.00,weatherlink.com 1.10,2013-02-11 09:11:00,
2013-02-11 03:26:00,40.3,33.0,29.69,WSW,245,15.0,-999.0,76,-99.99,,,0.00,weatherlink.com 1.10,2013-02-11 09:26:00,
2013-02-11 03:41:00,39.7,32.0,29.69,WSW,242,14.0,-999.0,73,-99.99,,,0.00,weatherlink.com 1.10,2013-02-11 09:41:00,
2013-02-11 03:56:00,38.7,31.0,29.71,WSW,243,15.0,-999.0,73,-99.99,,,0.00,weatherlink.com 1.10,2013-02-11 09:56:00,
2013-02-11 04:12:00,38.0,30.0,29.71,WSW,251,14.0,-999.0,74,-99.99,,,0.00,weatherlink.com 1.10,2013-02-11 10:12:00,
2013-02-11 04:27:00,37.4,30.0,29.73,SW,233,9.0,-999.0,76,-99.99,,,0.00,weatherlink.com 1.10,2013-02-11 10:27:00,
2013-02-11 04:42:00,36.7,30.0,29.73,West,263,9.0,-999.0,77,-99.99,,,0.00,weatherlink.com 1.10,2013-02-11 10:42:00,
2013-02-11 04:57:00,36.4,30.0,29.73,SW,236,15.0,-999.0,77,-99.99,,,0.00,weatherlink.com 1.10,2013-02-11 10:57:00,
2013-02-11 05:11:00,36.1,30.0,29.73,WSW,248,12.0,-999.0,77,-99.99,,,0.00,weatherlink.com 1.10,2013-02-11 11:11:00,
2013-02-11 05:27:00,36.2,29.0,29.73,West,272,6.0,-999.0,76,-99.99,,,0.00,weatherlink.com 1.10,2013-02-11 11:27:00,
2013-02-11 05:42:00,35.8,29.0,29.74,West,263,10.0,-999.0,77,-99.99,,,0.00,weatherlink.com 1.10,2013-02-11 11:42:00,
2013-02-11 05:57:00,35.4,29.0,29.75,WSW,242,5.0,-999.0,78,-99.99,,,0.00,weatherlink.com 1.10,2013-02-11 11:57:00,
2013-02-11 06:12:00,35.0,29.0,29.76,West,268,4.0,-999.0,79,-99.99,,,0.00,weatherlink.com 1.10,2013-02-11 12:12:00,
2013-02-11 06:27:00,34.9,29.0,29.76,West,265,4.0,-999.0,78,-99.99,,,0.00,weatherlink.com 1.10,2013-02-11 12:27:00,
2013-02-11 06:42:00,35.1,28.0,29.77,WSW,242,9.0,-999.0,76,-99.99,,,0.00,weatherlink.com 1.10,2013-02-11 12:42:00,
2013-02-11 06:58:00,35.0,28.0,29.78,West,264,11.0,-999.0,75,-99.99,,,0.00,weatherlink.com 1.10,2013-02-11 12:58:00,
2013-02-11 07:13:00,35.0,28.0,29.78,West,261,10.0,-999.0,75,-99.99,,,0.00,weatherlink.com 1.10,2013-02-11 13:13:00,
2013-02-11 07:28:00,34.9,27.0,29.79,WSW,251,11.0,-999.0,74,-99.99,,,0.00,weatherlink.com 1.10,2013-02-11 13:28:00,
2013-02-11 07:43:00,34.7,28.0,29.81,WSW,253,7.0,-999.0,76,-99.99,,,0.00,weatherlink.com 1.10,2013-02-11 13:43:00,
2013-02-11 07:58:00,34.6,27.0,29.81,WSW,241,15.0,-999.0,74,-99.99,,,0.00,weatherlink.com 1.10,2013-02-11 13:58:00,
2013-02-11 08:12:00,34.7,27.0,29.82,West,267,14.0,-999.0,74,-99.99,,,0.00,weatherlink.com 1.10,2013-02-11 14:12:00,
2013-02-11 08:28:00,34.6,27.0,29.83,WSW,254,17.0,-999.0,74,-99.99,,,0.00,weatherlink.com 1.10,2013-02-11 14:28:00,
2013-02-11 08:43:00,34.6,27.0,29.83,SW,221,11.0,-999.0,74,-99.99,,,0.00,weatherlink.com 1.10,2013-02-11 14:43:00,
2013-02-11 08:58:00,34.5,27.0,29.84,West,278,12.0,-999.0,74,-99.99,,,0.00,weatherlink.com 1.10,2013-02-11 14:58:00,
2013-02-11 09:12:00,34.4,27.0,29.84,WSW,252,15.0,-999.0,74,-99.99,,,0.00,weatherlink.com 1.10,2013-02-11 15:12:00,
2013-02-11 09:28:00,34.5,27.0,29.85,WSW,258,9.0,-999.0,74,-99.99,,,0.00,weatherlink.com 1.10,2013-02-11 15:28:00,
2013-02-11 09:43:00,34.4,27.0,29.85,WSW,257,3.0,-999.0,75,-99.99,,,0.00,weatherlink.com 1.10,2013-02-11 15:43:00,
2013-02-11 09:58:00,34.4,27.0,29.86,West,261,13.0,-999.0,74,-99.99,,,0.00,weatherlink.com 1.10,2013-02-11 15:58:00,
2013-02-11 10:13:00,34.8,27.0,29.87,West,266,7.0,-999.0,74,-99.99,,,0.00,weatherlink.com 1.10,2013-02-11 16:13:00,
2013-02-11 10:28:00,35.0,28.0,29.88,West,266,13.0,-999.0,74,-99.99,,,0.00,weatherlink.com 1.10,2013-02-11 16:28:00,
2013-02-11 10:43:00,35.1,27.0,29.88,West,267,18.0,-999.0,73,-99.99,,,0.00,weatherlink.com 1.10,2013-02-11 16:43:00,
2013-02-11 10:58:00,35.5,28.0,29.89,SW,235,14.0,-999.0,73,-99.99,,,0.00,weatherlink.com 1.10,2013-02-11 16:58:00,
2013-02-11 11:13:00,35.6,27.0,29.89,West,263,17.0,-999.0,72,-99.99,,,0.00,weatherlink.com 1.10,2013-02-11 17:13:00,
2013-02-11 11:28:00,35.4,27.0,29.90,West,262,10.0,-999.0,72,-99.99,,,0.00,weatherlink.com 1.10,2013-02-11 17:28:00,
2013-02-11 11:43:00,35.7,28.0,29.90,WSW,248,12.0,-999.0,73,-99.99,,,0.00,weatherlink.com 1.10,2013-02-11 17:43:00,
2013-02-11 11:58:00,35.7,27.0,29.90,West,273,19.0,-999.0,72,-99.99,,,0.00,weatherlink.com 1.10,2013-02-11 17:58:00,
2013-02-11 12:13:00,35.7,27.0,29.90,West,267,14.0,-999.0,72,-99.99,,,0.00,weatherlink.com 1.10,2013-02-11 18:13:00,
2013-02-11 12:28:00,36.2,28.0,29.90,West,263,10.0,-999.0,71,-99.99,,,0.00,weatherlink.com 1.10,2013-02-11 18:28:00,
2013-02-11 12:43:00,36.6,28.0,29.90,WNW,292,12.0,-999.0,71,-99.99,,,0.00,weatherlink.com 1.10,2013-02-11 18:43:00,
2013-02-11 12:58:00,36.5,27.0,29.90,West,275,17.0,-999.0,69,-99.99,,,0.00,weatherlink.com 1.10,2013-02-11 18:58:00,
2013-02-11 13:13:00,36.8,27.0,29.91,WNW,284,11.0,-999.0,68,-99.99,,,0.00,weatherlink.com 1.10,2013-02-11 19:13:00,
2013-02-11 13:28:00,36.8,27.0,29.90,West,269,7.0,-999.0,69,-99.99,,,0.00,weatherlink.com 1.10,2013-02-11 19:28:00,
2013-02-11 13:43:00,36.8,28.0,29.91,NW,311,4.0,-999.0,70,-99.99,,,0.00,weatherlink.com 1.10,2013-02-11 19:43:00,
2013-02-11 13:58:00,36.8,28.0,29.91,West,265,11.0,-999.0,70,-99.99,,,0.00,weatherlink.com 1.10,2013-02-11 19:58:00,
2013-02-11 14:14:00,37.0,27.0,29.92,WNW,290,17.0,-999.0,68,-99.99,,,0.00,weatherlink.com 1.10,2013-02-11 20:14:00,
2013-02-11 14:29:00,37.0,28.0,29.92,WNW,292,10.0,-999.0,70,-99.99,,,0.00,weatherlink.com 1.10,2013-02-11 20:29:00,
2013-02-11 14:44:00,36.9,28.0,29.93,West,274,9.0,-999.0,71,-99.99,,,0.00,weatherlink.com 1.10,2013-02-11 20:44:00,
2013-02-11 14:59:00,37.1,28.0,29.94,West,267,16.0,-999.0,70,-99.99,,,0.00,weatherlink.com 1.10,2013-02-11 20:59:00,
2013-02-11 15:14:00,37.1,28.0,29.94,WNW,292,3.0,-999.0,71,-99.99,,,0.00,weatherlink.com 1.10,2013-02-11 21:14:00,
2013-02-11 15:29:00,37.4,29.0,29.96,West,280,4.0,-999.0,72,-99.99,,,0.00,weatherlink.com 1.10,2013-02-11 21:29:00,
2013-02-11 15:44:00,37.2,29.0,29.96,West,277,14.0,-999.0,71,-99.99,,,0.00,weatherlink.com 1.10,2013-02-11 21:44:00,
2013-02-11 15:59:00,37.3,29.0,29.96,West,265,6.0,-999.0,71,-99.99,,,0.00,weatherlink.com 1.10,2013-02-11 21:59:00,
2013-02-11 16:13:00,37.0,29.0,29.97,NW,315,6.0,-999.0,72,-99.99,,,0.00,weatherlink.com 1.10,2013-02-11 22:13:00,
2013-02-11 16:28:00,35.6,28.0,29.98,WNW,295,8.0,-999.0,74,-99.99,,,0.00,weatherlink.com 1.10,2013-02-11 22:28:00,
2013-02-11 16:43:00,35.1,28.0,29.97,WNW,301,5.0,-999.0,76,-99.99,,,0.00,weatherlink.com 1.10,2013-02-11 22:43:00,
2013-02-11 16:58:00,34.8,28.0,29.98,WNW,298,2.0,-999.0,77,-99.99,,,0.00,weatherlink.com 1.10,2013-02-11 22:58:00,
2013-02-11 17:14:00,34.2,28.0,29.98,West,277,1.0,-999.0,79,-99.99,,,0.00,weatherlink.com 1.10,2013-02-11 23:14:00,
2013-02-11 17:29:00,33.7,28.0,29.99,West,276,1.0,-999.0,80,-99.99,,,0.00,weatherlink.com 1.10,2013-02-11 23:29:00,
2013-02-11 17:59:00,33.5,29.0,30.00,WNW,292,4.0,-999.0,82,-99.99,,,0.00,weatherlink.com 1.10,2013-02-11 23:59:00,
2013-02-11 18:14:00,33.4,28.0,30.00,NW,307,0.0,-999.0,81,-99.99,,,0.00,weatherlink.com 1.10,2013-02-12 00:14:00,
2013-02-11 18:29:00,33.1,28.0,30.01,WNW,287,6.0,-999.0,82,-99.99,,,0.00,weatherlink.com 1.10,2013-02-12 00:29:00,
2013-02-11 18:44:00,33.0,28.0,30.02,West,266,4.0,-999.0,81,-99.99,,,0.00,weatherlink.com 1.10,2013-02-12 00:44:00,
2013-02-11 18:59:00,32.8,28.0,30.02,West,281,5.0,-999.0,82,-99.99,,,0.00,weatherlink.com 1.10,2013-02-12 00:59:00,
2013-02-11 19:15:00,32.6,28.0,30.03,NW,314,4.0,-999.0,82,-99.99,,,0.00,weatherlink.com 1.10,2013-02-12 01:15:00,
2013-02-11 19:30:00,32.4,28.0,30.03,WNW,294,4.0,-999.0,82,-99.99,,,0.00,weatherlink.com 1.10,2013-02-12 01:30:00,
2013-02-11 19:45:00,32.3,27.0,30.03,WNW,295,4.0,-999.0,82,-99.99,,,0.00,weatherlink.com 1.10,2013-02-12 01:45:00,
2013-02-11 20:00:00,32.0,27.0,30.04,WNW,284,5.0,-999.0,83,-99.99,,,0.00,weatherlink.com 1.10,2013-02-12 02:00:00,
2013-02-11 20:14:00,31.9,27.0,30.04,West,281,4.0,-999.0,83,-99.99,,,0.00,weatherlink.com 1.10,2013-02-12 02:14:00,
2013-02-11 20:29:00,32.1,27.0,30.04,West,280,3.0,-999.0,81,-99.99,,,0.00,weatherlink.com 1.10,2013-02-12 02:29:00,
2013-02-11 20:44:00,32.1,27.0,30.04,WNW,303,9.0,-999.0,80,-99.99,,,0.00,weatherlink.com 1.10,2013-02-12 02:44:00,
2013-02-11 20:59:00,31.8,27.0,30.05,West,279,3.0,-999.0,81,-99.99,,,0.00,weatherlink.com 1.10,2013-02-12 02:59:00,
2013-02-11 21:15:00,31.5,26.0,30.05,NW,321,7.0,-999.0,80,-99.99,,,0.00,weatherlink.com 1.10,2013-02-12 03:15:00,
2013-02-11 21:30:00,31.2,26.0,30.05,WNW,285,4.0,-999.0,80,-99.99,,,0.00,weatherlink.com 1.10,2013-02-12 03:30:00,
2013-02-11 21:45:00,30.9,26.0,30.06,WNW,288,7.0,-999.0,81,-99.99,,,0.00,weatherlink.com 1.10,2013-02-12 03:45:00,
2013-02-11 22:00:00,30.6,26.0,30.06,WNW,295,1.0,-999.0,82,-99.99,,,0.00,weatherlink.com 1.10,2013-02-12 04:00:00,
2013-02-11 22:14:00,30.3,26.0,30.06,West,275,5.0,-999.0,83,-99.99,,,0.00,weatherlink.com 1.10,2013-02-12 04:14:00,
2013-02-11 22:30:00,30.1,26.0,30.07,WNW,282,0.0,-999.0,83,-99.99,,,0.00,weatherlink.com 1.10,2013-02-12 04:30:00,
2013-02-11 22:45:00,29.9,25.0,30.07,West,273,8.0,-999.0,83,-99.99,,,0.00,weatherlink.com 1.10,2013-02-12 04:45:00,
2013-02-11 23:00:00,29.7,25.0,30.07,WNW,298,0.0,-999.0,84,-99.99,,,0.00,weatherlink.com 1.10,2013-02-12 05:00:00,
2013-02-11 23:15:00,29.4,26.0,30.07,WNW,301,0.0,-999.0,85,-99.99,,,0.00,weatherlink.com 1.10,2013-02-12 05:15:00,
2013-02-11 23:30:00,29.2,25.0,30.08,WNW,290,3.0,-999.0,85,-99.99,,,0.00,weatherlink.com 1.10,2013-02-12 05:30:00,
2013-02-11 23:45:00,29.1,25.0,30.09,West,276,3.0,-999.0,85,-99.99,,,0.00,weatherlink.com 1.10,2013-02-12 05:45:00,